Dalhart, TX

11:55 AM CDT on May 21, 2018 (GMT -0500)
Dalhart Municipal

Weather History for KDHT - February, 2014

Change the Weather History Date:

Wednesday, February 19, 2014

  Actual Average Record
Temperature  
Mean Temperature 52 °F 38 °F  
Max Temperature 69 °F 54 °F 76 °F (1986)
Min Temperature 34 °F 23 °F 2 °F (1955)
Degree Days  
Heating Degree Days 13 26  
Month to date heating degree days 532 534  
Since 1 July heating degree days 3379 3416  
Cooling Degree Days 0 0  
Month to date cooling degree days 0 0  
Year to date cooling degree days 0 0  
Growing Degree Days 2 (Base 50)    
Moisture  
Dew Point 19 °F    
Average Humidity 34    
Maximum Humidity 56    
Minimum Humidity 12    
Precipitation  
Precipitation 0.00 in 0.01 in 0.70 in (1954)
Month to date precipitation 0.08 0.27  
Year to date precipitation 0.09 0.79  
Snow  
Snow 0.00 in 0.10 in 3.00 in (1969)
Month to date snowfall 2.8 2.3  
Since 1 July snowfall 15.3 12.8  
Snow Depth 0.00 in    
Sea Level Pressure  
Sea Level Pressure 29.68 in    
Wind  
Wind Speed 12 mph (WSW)    
Max Wind Speed 26 mph    
Max Gust Speed 34 mph    
Visibility 10 miles    
Events      
T = Trace of Precipitation, MM = Missing Value Source: NWS Daily Summary

Daily Weather History Graph

Daily Weather History Graph

Search for Another Location

Airport or City:

Astronomy

Feb. 19, 2014 Rise Set
Actual Time 7:32 AM CST 6:35 PM CST
Civil Twilight 7:06 AM CST 7:01 PM CST
Nautical Twilight 6:36 AM CST 7:31 PM CST
Astronomical Twilight 6:07 AM CST 8:01 PM CST
Moon 11:20 PM CST (2/19) 9:49 AM CST (2/19)
Length of Visible Light 11h 54m
Length of Day
11h 02m
Waning Gibbous, 79% of the Moon is Illuminated
Feb 19
Waning Gibbous
Feb 22
Last Quarter
Mar 1
New
Mar 8
First Quarter
Mar 16
Full

Hourly Weather History & Observations

Time (CST) Temp. Windchill Dew Point Humidity Pressure Visibility Wind Dir Wind Speed Gust Speed Precip Events Conditions
12:53 AM 42.1 °F 35.2 °F 18.0 °F 38% 29.92 in 10.0 mi ENE 12.7 mph - N/A   Clear
1:53 AM 41.0 °F 35.2 °F 19.0 °F 41% 29.93 in 10.0 mi NNE 9.2 mph - N/A   Clear
2:53 AM 39.0 °F 33.4 °F 19.9 °F 46% 29.92 in 10.0 mi NNW 8.1 mph - N/A   Clear
3:53 AM 37.9 °F 33.5 °F 19.9 °F 48% 29.88 in 10.0 mi NNE 5.8 mph - N/A   Clear
4:53 AM 37.9 °F 30.9 °F 19.9 °F 48% 29.89 in 10.0 mi NW 10.4 mph - N/A   Clear
5:53 AM 37.0 °F 33.3 °F 19.9 °F 50% 29.88 in 10.0 mi NNW 4.6 mph - N/A   Clear
6:53 AM 37.9 °F 32.7 °F 19.9 °F 48% 29.91 in 10.0 mi NNW 6.9 mph - N/A   Clear
7:53 AM 34.0 °F 27.2 °F 19.9 °F 56% 29.91 in 10.0 mi NNW 8.1 mph - N/A   Clear
8:53 AM 39.9 °F 35.8 °F 21.9 °F 49% 29.89 in 10.0 mi NW 5.8 mph - N/A   Clear
9:53 AM 45.0 °F - 21.0 °F 39% 29.86 in 10.0 mi Calm Calm - N/A   Clear
10:53 AM 51.1 °F - 18.0 °F 27% 29.81 in 10.0 mi South 12.7 mph - N/A   Clear
11:53 AM 53.1 °F - 19.0 °F 26% 29.78 in 10.0 mi SW 15.0 mph - N/A   Clear
12:53 PM 57.0 °F - 19.9 °F 24% 29.70 in 10.0 mi SSW 15.0 mph 25.3 mph N/A   Clear
1:53 PM 61.0 °F - 18.0 °F 19% 29.62 in 10.0 mi SW 19.6 mph 26.5 mph N/A   Clear
2:53 PM 64.9 °F - 17.1 °F 16% 29.56 in 10.0 mi SW 19.6 mph - N/A   Clear
3:53 PM 66.9 °F - 16.0 °F 14% 29.52 in 10.0 mi SW 23.0 mph 31.1 mph N/A   Clear
4:53 PM 69.1 °F - 16.0 °F 13% 29.49 in 10.0 mi SW 17.3 mph - N/A   Clear
5:53 PM 64.9 °F - 19.0 °F 17% 29.47 in 10.0 mi SSW 10.4 mph - N/A   Clear
6:53 PM 61.0 °F - 18.0 °F 19% 29.45 in 10.0 mi South 15.0 mph - N/A   Clear
7:53 PM 59.0 °F - 18.0 °F 20% 29.47 in 10.0 mi WSW 11.5 mph - N/A   Clear
8:53 PM 55.9 °F - 16.0 °F 21% 29.45 in 10.0 mi WSW 10.4 mph - N/A   Clear
9:53 PM 43.0 °F 36.8 °F 19.0 °F 38% 29.45 in 10.0 mi SSW 11.5 mph - N/A   Clear
10:53 PM 50.0 °F - 18.0 °F 28% 29.39 in 10.0 mi SSW 11.5 mph - N/A   Clear
11:48 PM 51.8 °F - 17.6 °F 26% 29.48 in 10.0 mi West 13.8 mph - N/A   Clear
11:53 PM 52.0 °F - 16.0 °F 24% 29.39 in 10.0 mi WNW 12.7 mph - N/A   Clear